TimeCST,TemperatureF,Dew PointF,Humidity,Sea Level PressureIn,VisibilityMPH,Wind Direction,Wind SpeedMPH,Gust SpeedMPH,PrecipitationIn,Events,Conditions,WindDirDegrees,DateUTC
12:08 AM,23.0,18.1,82,-9999,-9999.0,NNW,6.9,-,N/A,,Unknown,340,2013-11-23 06:08:00
12:28 AM,24.1,19.0,81,-9999,-9999.0,NW,4.6,-,N/A,,Unknown,320,2013-11-23 06:28:00
12:48 AM,23.0,20.1,89,-9999,-9999.0,WNW,4.6,-,N/A,,Unknown,290,2013-11-23 06:48:00
1:08 AM,23.0,19.0,85,-9999,-9999.0,WNW,4.6,-,N/A,,Unknown,300,2013-11-23 07:08:00
1:28 AM,24.1,20.1,85,-9999,-9999.0,NW,3.5,-,N/A,,Unknown,310,2013-11-23 07:28:00
1:48 AM,24.1,19.0,81,-9999,-9999.0,NW,4.6,-,N/A,,Unknown,320,2013-11-23 07:48:00
2:08 AM,24.1,18.1,78,-9999,-9999.0,NW,4.6,-,N/A,,Unknown,310,2013-11-23 08:08:00
2:28 AM,24.1,19.0,81,-9999,-9999.0,NW,3.5,-,N/A,,Unknown,320,2013-11-23 08:28:00
2:48 AM,24.1,20.1,85,-9999,-9999.0,NW,5.8,-,N/A,,Unknown,310,2013-11-23 08:48:00
3:08 AM,-9999,-9999,N/A,-9999,-9999.0,North,-9999.0,-,N/A,,Unknown,0,2013-11-23 09:08:00
3:28 AM,25.0,20.1,82,-9999,-9999.0,WNW,5.8,-,N/A,,Unknown,300,2013-11-23 09:28:00
3:48 AM,25.0,20.1,82,-9999,-9999.0,NW,5.8,-,N/A,,Unknown,310,2013-11-23 09:48:00
4:08 AM,26.1,21.0,81,-9999,-9999.0,NW,5.8,-,N/A,,Unknown,310,2013-11-23 10:08:00
4:28 AM,26.1,21.0,81,-9999,-9999.0,NW,4.6,-,N/A,,Unknown,310,2013-11-23 10:28:00
4:48 AM,26.1,21.0,81,-9999,-9999.0,NW,4.6,-,N/A,,Unknown,310,2013-11-23 10:48:00
5:08 AM,26.1,22.1,85,-9999,-9999.0,NW,3.5,-,N/A,,Unknown,320,2013-11-23 11:08:00
5:28 AM,27.0,21.0,78,-9999,-9999.0,NNW,5.8,-,N/A,,Unknown,330,2013-11-23 11:28:00
5:48 AM,27.0,22.1,82,-9999,-9999.0,NNW,6.9,-,N/A,,Unknown,330,2013-11-23 11:48:00
6:08 AM,28.0,22.1,78,-9999,-9999.0,NNW,8.1,-,N/A,,Unknown,340,2013-11-23 12:08:00
6:28 AM,28.0,22.1,78,-9999,-9999.0,NNW,6.9,-,N/A,,Unknown,340,2013-11-23 12:28:00
6:48 AM,28.0,23.0,81,-9999,-9999.0,North,6.9,-,N/A,,Unknown,350,2013-11-23 12:48:00
7:08 AM,28.0,23.0,81,-9999,-9999.0,North,4.6,-,N/A,,Unknown,350,2013-11-23 13:08:00
7:28 AM,28.0,23.0,81,-9999,-9999.0,North,8.1,-,N/A,,Unknown,350,2013-11-23 13:28:00
7:48 AM,28.0,23.0,81,-9999,-9999.0,North,5.8,-,N/A,,Unknown,350,2013-11-23 13:48:00
8:08 AM,28.0,23.0,81,-9999,-9999.0,North,6.9,-,N/A,,Unknown,350,2013-11-23 14:08:00
8:28 AM,28.0,22.1,78,-9999,-9999.0,NNW,9.2,-,N/A,,Unknown,340,2013-11-23 14:28:00
8:48 AM,28.9,22.1,76,-9999,-9999.0,North,8.1,-,N/A,,Unknown,350,2013-11-23 14:48:00
9:08 AM,28.9,20.1,70,-9999,-9999.0,North,8.1,-,N/A,,Unknown,360,2013-11-23 15:08:00
9:28 AM,28.9,21.0,72,-9999,-9999.0,NNE,9.2,-,N/A,,Unknown,30,2013-11-23 15:28:00
9:48 AM,28.9,19.0,67,-9999,-9999.0,NNE,10.4,-,N/A,,Unknown,20,2013-11-23 15:48:00
10:08 AM,30.0,19.0,64,-9999,-9999.0,NNE,12.7,-,N/A,,Unknown,30,2013-11-23 16:08:00
10:28 AM,30.0,18.1,61,-9999,-9999.0,NNE,10.4,-,N/A,,Unknown,20,2013-11-23 16:28:00
10:48 AM,30.0,17.1,59,-9999,-9999.0,NNE,10.4,-,N/A,,Unknown,20,2013-11-23 16:48:00
11:08 AM,30.0,16.2,56,-9999,-9999.0,NNE,12.7,-,N/A,,Unknown,20,2013-11-23 17:08:00
11:28 AM,30.0,18.1,61,-9999,-9999.0,NNE,8.1,-,N/A,,Unknown,30,2013-11-23 17:28:00
11:48 AM,30.0,18.1,61,-9999,-9999.0,NNE,10.4,-,N/A,,Unknown,20,2013-11-23 17:48:00
12:08 PM,30.0,17.1,59,-9999,-9999.0,North,9.2,-,N/A,,Unknown,10,2013-11-23 18:08:00
12:28 PM,28.9,17.1,61,-9999,-9999.0,North,10.4,-,N/A,,Unknown,10,2013-11-23 18:28:00
12:48 PM,28.9,19.0,67,-9999,-9999.0,NNE,6.9,-,N/A,,Unknown,20,2013-11-23 18:48:00
1:08 PM,28.9,18.1,64,-9999,-9999.0,NNE,8.1,-,N/A,,Unknown,20,2013-11-23 19:08:00
1:28 PM,28.9,17.1,61,-9999,-9999.0,North,6.9,-,N/A,,Unknown,360,2013-11-23 19:28:00
1:48 PM,28.9,18.1,64,-9999,-9999.0,NNE,6.9,-,N/A,,Unknown,30,2013-11-23 19:48:00
2:08 PM,28.9,17.1,61,-9999,-9999.0,North,6.9,-,N/A,,Unknown,10,2013-11-23 20:08:00
2:28 PM,28.9,17.1,61,-9999,-9999.0,NNE,6.9,-,N/A,,Unknown,20,2013-11-23 20:28:00
2:48 PM,28.0,17.1,63,-9999,-9999.0,NNE,8.1,-,N/A,,Unknown,30,2013-11-23 20:48:00
3:08 PM,28.0,16.2,61,-9999,-9999.0,NNE,6.9,-,N/A,,Unknown,30,2013-11-23 21:08:00
3:28 PM,28.9,17.1,61,-9999,-9999.0,ENE,5.8,-,N/A,,Unknown,60,2013-11-23 21:28:00
3:48 PM,28.0,16.2,61,-9999,-9999.0,ENE,6.9,-,N/A,,Unknown,60,2013-11-23 21:48:00
4:08 PM,28.0,16.2,61,-9999,-9999.0,NE,5.8,-,N/A,,Unknown,50,2013-11-23 22:08:00
4:28 PM,28.0,16.2,61,-9999,-9999.0,NE,5.8,-,N/A,,Unknown,50,2013-11-23 22:28:00
4:48 PM,27.0,15.1,61,-9999,-9999.0,NE,4.6,-,N/A,,Unknown,50,2013-11-23 22:48:00
5:08 PM,27.0,15.1,61,-9999,-9999.0,NE,5.8,-,N/A,,Unknown,50,2013-11-23 23:08:00
5:28 PM,26.1,16.2,66,-9999,-9999.0,ENE,4.6,-,N/A,,Unknown,70,2013-11-23 23:28:00
5:48 PM,26.1,16.2,66,-9999,-9999.0,ENE,2.3,-,N/A,,Unknown,60,2013-11-23 23:48:00
6:08 PM,26.1,16.2,66,-9999,-9999.0,ENE,3.5,-,N/A,,Unknown,60,2013-11-24 00:08:00
6:28 PM,26.1,17.1,69,-9999,-9999.0,ENE,3.5,-,N/A,,Unknown,70,2013-11-24 00:28:00
6:48 PM,25.0,17.1,72,-9999,-9999.0,ENE,3.5,-,N/A,,Unknown,70,2013-11-24 00:48:00
7:08 PM,24.1,17.1,75,-9999,-9999.0,ENE,3.5,-,N/A,,Unknown,60,2013-11-24 01:08:00
7:28 PM,24.1,17.1,75,-9999,-9999.0,NE,4.6,-,N/A,,Unknown,50,2013-11-24 01:28:00
7:48 PM,24.1,16.2,72,-9999,-9999.0,ENE,6.9,-,N/A,,Unknown,70,2013-11-24 01:48:00
8:08 PM,24.1,16.2,72,-9999,-9999.0,East,4.6,-,N/A,,Unknown,80,2013-11-24 02:08:00
8:28 PM,24.1,17.1,75,-9999,-9999.0,ENE,4.6,-,N/A,,Unknown,70,2013-11-24 02:28:00
8:48 PM,24.1,16.2,72,-9999,-9999.0,ENE,4.6,-,N/A,,Unknown,70,2013-11-24 02:48:00
9:08 PM,24.1,17.1,75,-9999,-9999.0,East,5.8,-,N/A,,Unknown,80,2013-11-24 03:08:00
9:28 PM,24.1,18.1,78,-9999,-9999.0,East,4.6,-,N/A,,Unknown,90,2013-11-24 03:28:00
9:48 PM,24.1,17.1,75,-9999,-9999.0,East,5.8,-,N/A,,Unknown,90,2013-11-24 03:48:00
10:08 PM,24.1,18.1,78,-9999,-9999.0,East,5.8,-,N/A,,Unknown,100,2013-11-24 04:08:00
10:28 PM,24.1,17.1,75,-9999,-9999.0,ESE,5.8,-,N/A,,Unknown,110,2013-11-24 04:28:00
10:48 PM,24.1,17.1,75,-9999,-9999.0,East,5.8,-,N/A,,Unknown,80,2013-11-24 04:48:00
11:08 PM,24.1,17.1,75,-9999,-9999.0,East,6.9,-,N/A,,Unknown,90,2013-11-24 05:08:00
11:28 PM,24.1,18.1,78,-9999,-9999.0,SE,5.8,-,N/A,,Unknown,130,2013-11-24 05:28:00
11:48 PM,24.1,18.1,78,-9999,-9999.0,SE,6.9,-,N/A,,Unknown,130,2013-11-24 05:48:00